Location: Esp�s Alto
(42.4476°N, 0.5876°E)
Time: 00:14:24
(UTC+00:00)

Cosmos 1356 - Pass Details

Date: 22 October 2019
Orbit: 447 x 449 km, 81.1° (Epoch: 14 November)

Event Time Altitude Azimuth Distance (km) Brightness Sun altitude
Exits shadow 04:24:25 10° 357° (N) 1,572 6.2 -21.7°
Maximum altitude 04:27:49 63° 79° (E) 507 3.8 -21.1°
Drops below altitude 10° 04:31:13 10° 161° (SSE) 1,572 6.3 -20.4°
Sets 04:33:17 0° 165° (SSE) 2,439 7.3 -20.0°
